EUTELSAT HOTBIRD 13E (28946 NORAD) Tracking and Keplerian Element Data

This shows tracking and keplerian element data for the satellite.

Feedback or suggestion? Click here.




ElementValue
Catalog28946
NameEUTELSAT HOTBIRD 13E
Epoch Orbit6930
Epoch Day34.8947349
Epoch Year2025
RAAN93.1388
Inclination0.8095
Eccentricity0.0002985
Argument of Perigee274.5227
Mean Anonmoly72.716
Mean Motion1.00269863
Decay Rate-1.23E-06
L11 28946U 06007B 25034.89473490 -.00000123 00000+0 00000+0 0 9995
L22 28946 0.8095 93.1388 0002985 274.5227 72.7160 1.00269863 69304



Live tracking and technical data element details for EUTELSAT HOTBIRD 13E (NORAD 28946). EUTELSAT HOTBIRD 13E can be tracked NOW for your location showing map with azimuth and elevation plus other details from your city location.







IsCatalogInMostPopularTable: catalog: 28946, numindb: 419
Update: records affected: 1



GetName: 28946 EUTELSAT HOTBIRD 13E

Hit Count: updated at: Thu, 16 Apr 2026 04:51:37 GMT